Regional Weather Roundup
Issued by NWS

Home | Current Version | Previous Version | Graphics & Text | Print | Product List | Glossary On
Versions: 1 2 3 4 5 6 7 8 9 10 11 12 13 14 15 16 17 18 19 20 21 22 23 24 25 26 27 28 29 30 31 32 33 34 35 36 37 38 39 40 41 42 43 44 45 46 47 48 49 50
000
ASUS43 KLSX 110807
RWRMO

WEATHER SUMMARY FOR MISSOURI
NATIONAL WEATHER SERVICE SPRINGFIELD MO
300 AM CDT FRI JUL 11 2014

NOTE: "FAIR" INDICATES FEW OR NO CLOUDS BELOW 12,000 FEET WITH NO
       SIGNIFICANT WEATHER AND/OR OBSTRUCTIONS TO VISIBILITY.
       CURRENT SKY AND/OR WEATHER CONDITIONS ARE NOT AVAILABLE FOR
       CHILLICOTHE AND FARMINGTON.

MOZ001>031-035>038-043-044-053-054-110900-
...NORTHERN AND WESTERN MISSOURI...

CITY           SKY/WX    TMP DP  RH WIND       PRES   REMARKS
KANSAS CTY INT CLEAR     70  64  81 SE9       30.05F
KANSAS C DTWN  CLEAR     72  64  76 S8        30.04F
LEE`S SUMMIT   CLEAR     69  64  84 S9        30.06F
ST JOSEPH      CLEAR     70  65  84 S9        30.03F
CHILLICOTHE      N/A     69  60  73 SE6       30.09F
KIRKSVILLE     CLEAR     63  58  83 SE7       30.12F

$$
MOZ066>068-077>081-088>096-101>105-110900-
...SOUTHWEST MISSOURI...

CITY           SKY/WX    TMP DP  RH WIND       PRES   REMARKS
SPRINGFIELD    CLEAR     68  65  90 S9        30.10F
JOPLIN         CLOUDY    70  66  87 SE8       30.07F

$$
MOZ032>034-039>042-045>050-055>058-069>072-110900-
...CENTRAL MISSOURI...

CITY           SKY/WX    TMP DP  RH WIND       PRES   REMARKS
COLUMBIA       CLEAR     66  62  87 SE6       30.11F
JEFFERSON CITY CLEAR     67  62  84 E6        30.10F
ROLLA          CLEAR     65  62  90 SE7       30.12F
SEDALIA        CLEAR     67  64  90 SE7       30.09F
WHITEMAN AFB   CLEAR     67  60  79 SE6       30.07F
OSAGE BEACH    CLEAR     66  63  88 SE3       30.11S

$$
MOZ051-052-059>065-110900-
...EAST CENTRAL MISSOURI...

CITY           SKY/WX    TMP DP  RH WIND       PRES   REMARKS
ST LOUIS INTL  PTCLDY    68  58  70 E6        30.14F
SPIRIT OF STL  CLEAR     61  59  93 CALM      30.12F
ST CHARLES     CLEAR     62  58  86 E7        30.13F

$$
MOZ072>076-082>087-097>100-106>115-110900-
...SOUTH CENTRAL AND SOUTHEAST MISSOURI...

CITY           SKY/WX    TMP DP  RH WIND       PRES   REMARKS
CAPE GIRARDEAU CLEAR     67  65  93 CALM      30.12S FOG
FARMINGTON     CLEAR     61  59  94 CALM      30.17S
POPLAR BLUFF   CLEAR     68  64  87 NE5       30.11S
WEST PLAINS    CLOUDY    68  65  90 SE3       30.15F

$$



USA.gov is the U.S. government's official web portal to all federal, state and local government web resources and services.